Regional Weather Roundup
Issued by NWS

Home | Current Version | Previous Version | Text Only | Print | Product List | Glossary On
Versions: 1 2 3 4 5 6 7 8 9 10 11 12 13 14 15 16 17 18 19 20 21 22 23 24 25 26 27 28 29 30 31 32 33 34 35 36 37 38 39 40 41 42 43 44 45 46 47 48 49 50
000
ASUS44 KEWX 310602
RWRTX
SOUTH TEXAS REGIONAL WEATHER ROUNDUP
NATIONAL WEATHER SERVICE AUSTIN/SAN ANTONIO TX
1200 AM CST SAT JAN 31 2015

NOTE: "FAIR" INDICATED FEW OR NO CLOUDS BELOW 12,000 FEET WITH NO
SIGNIFICANT WEATHER AND/OR OBSTRUCTIONS TO VISIBILITY.

* - THESE STATIONS ARE NOT NWS OR FAA STATIONS...AND ARE NOT SUBJECT
    TO NWS AND FAA QUALITY CONTROL.

TXZ171-172-183>190-310700-
TEXAS HILL COUNTRY AND EDWARDS PLATEAU

CITY           SKY/WX    TMP DP  RH WIND       PRES   REMARKS
JUNCTION       CLOUDY    50  39  66 E6        30.22F WCI  48
6HR MIN TEMP:  49; 6HR MAX TEMP:  54;

*LLANO         MOCLDY    46  37  71 CALM      30.29F
BURNET         MOCLDY    47  35  63 E5        30.27F WCI  45
6HR MIN TEMP:  47; 6HR MAX TEMP:  52;

*HORSESHOE BAY MOCLDY    46  37  69 SE3       30.26F
6HR MIN TEMP:  46; 6HR MAX TEMP:  54;

*KERRVILLE     CLOUDY    51  41  69 SE6       30.25S
*FREDERICKSBRG CLOUDY    48  38  69 E3        30.24S
*ROCKSPRINGS   CLOUDY    50  39  66 SE9       30.22F WCI  46
*BOERNE STAGE  CLOUDY    50  37  62 E5        30.26F WCI  48
*CASTROVILLE   CLOUDY    54  40  60 E8        30.26F
HONDO          CLOUDY    53  40  61 E8        30.26S
6HR MIN TEMP:  52; 6HR MAX TEMP:  58;

*UVALDE        CLOUDY    52  41  65 E10       30.23F
6HR MIN TEMP:  52; 6HR MAX TEMP:  60;

DEL RIO        CLOUDY    56  41  57 E10       30.19S
6HR MIN TEMP:  56; 6HR MAX TEMP:  59;

LAUGHLIN AFB   CLOUDY    55  42  61 SE15G24   30.20S
6HR MIN TEMP:  55; 6HR MAX TEMP:  61;

CARRIZO SPRGS  CLOUDY    54  45  71 E9        30.20F
$$

TXZ173-191>194-202-209-217>225-228-310700-
CENTRAL AND SOUTH CENTRAL TEXAS

CITY           SKY/WX    TMP DP  RH WIND       PRES   REMARKS
GEORGETOWN     CLOUDY    48  36  61 CALM      30.27F
6HR MIN TEMP:  48; 6HR MAX TEMP:  52;

AUSTIN/BERGSTM MOCLDY    45  39  79 CALM      30.27F
6HR MIN TEMP:  44; 6HR MAX TEMP:  56;

AUSTIN/MABRY   CLOUDY    52  38  58 VRB3      30.27F
6HR MIN TEMP:  51; 6HR MAX TEMP:  55;

*AUSTIN/EXEC   CLOUDY    48  37  66 CALM      30.28S
*LAGO VISTA    MOCLDY    47  37  68 E5        30.26F WCI  45
6HR MIN TEMP:  47; 6HR MAX TEMP:  52;

SAN MARCOS     CLOUDY    52  39  62 NE7       30.26F
6HR MIN TEMP:  48; 6HR MAX TEMP:  55;

NEW BRAUNFELS  CLOUDY    53  40  61 NE8       30.24F
6HR MIN TEMP:  52; 6HR MAX TEMP:  56;

RANDOLPH AFB   CLOUDY    53  39  58 NE6       30.25F
6HR MIN TEMP:  52; 6HR MAX TEMP:  54;

PT SAN ANTONIO CLOUDY    54  40  59 E10       30.23F
6HR MIN TEMP:  54; 6HR MAX TEMP:  55;

SAN ANTONIO    CLOUDY    54  39  57 E5        30.25F
6HR MIN TEMP:  53; 6HR MAX TEMP:  55;

STINSON FIELD  CLOUDY    54  40  59 E7        30.24F
6HR MIN TEMP:  54; 6HR MAX TEMP:  56;

*PLEASANTON    CLOUDY    53  44  71 E12       30.25F
6HR MIN TEMP:  53; 6HR MAX TEMP:  58;

*LA GRANGE     CLEAR     50  42  74 E3        30.25F
*GIDDINGS      CLEAR     47  37  68 E6        30.30F WCI  45
6HR MIN TEMP:  47; 6HR MAX TEMP:  55;

*GONZALES      NOT AVBL
$$

TXZ163>164-176>182-195>201-210>213-226-227-235-310700-
SOUTHEAST TEXAS

CITY           SKY/WX    TMP DP  RH WIND       PRES   REMARKS
COLLEGE STN    CLEAR     48  35  60 E10       30.29F WCI  43
6HR MIN TEMP:  48; 6HR MAX TEMP:  56;

*BRYAN         CLEAR     45  35  67 E3        30.31F
*CALDWELL      CLEAR     46  36  66 NE6       30.31F WCI  43
*CROCKETT      CLEAR     48  37  66 CALM      30.34F
*BRENHAM       CLEAR     49  38  67 E5        30.29F WCI  47
6HR MIN TEMP:  48; 6HR MAX TEMP:  58;

HUNTSVILLE     CLEAR     47  35  63 E3        30.30F
6HR MIN TEMP:  44; 6HR MAX TEMP:  56;

CONROE         CLEAR     44  36  73 E3        30.30F
6HR MIN TEMP:  42; 6HR MAX TEMP:  53;

HOUSTON BUSH   PTCLDY    47  37  68 E5        30.29F WCI  45
6HR MIN TEMP:  45; 6HR MAX TEMP:  57;

HOUSTON HOBBY  CLEAR     50  42  74 E3        30.28F
6HR MIN TEMP:  50; 6HR MAX TEMP:  59;

*HOUSTON SW AP CLEAR     47  44  88 E3        30.29F
PEARLAND       CLEAR     50  45  83 E13       30.30F WCI  45
6HR MIN TEMP:  49; 6HR MAX TEMP:  59;

HOUSTON HOOKS  CLEAR     49  36  61 E6        30.29F WCI  46
6HR MIN TEMP:  49; 6HR MAX TEMP:  58;

ELLINGTON FLD  PTCLDY    52  41  66 E8        30.29F
SUGAR LAND     CLEAR     51  44  77 E5        30.28F
6HR MIN TEMP:  51; 6HR MAX TEMP:  60;

*HOUSTON EXEC  CLOUDY    46  37  71 E7        30.29F WCI  43
*CLEVELAND MUN CLEAR     45  39  81 CALM      30.31F
*WHARTON       PTCLDY    47  44  87 E5        30.29F WCI  45
*COLUMBUS      FAIR      47  44  86 CALM      30.27F
$$

TXZ214>216-236>238-310700-
THE UPPER TEXAS COAST

CITY           SKY/WX    TMP DP  RH WIND       PRES   REMARKS
*ORANGE        CLEAR     46  37  69 NE7       30.33F WCI  43
6HR MIN TEMP:  45; 6HR MAX TEMP:  57;

PORT ARTHUR    CLEAR     49  36  61 E10       30.30F WCI  45
6HR MIN TEMP:  48; 6HR MAX TEMP:  58;

GALVESTON      CLEAR     54  45  71 E10       30.29F
6HR MIN TEMP:  54; 6HR MAX TEMP:  55;

ANGLETON       CLEAR     50  45  83 E5        30.28F WCI  48
6HR MIN TEMP:  47; 6HR MAX TEMP:  54;

*BAY CITY      PTCLDY    49  47  93 E3        30.27F
PALACIOS       CLOUDY    54  50  86 E10       30.26F
6HR MIN TEMP:  50; 6HR MAX TEMP:  55;

$$

TXZ229>234-239>247-310700-
TEXAS COASTAL BEND AND RIO GRANDE PLAINS

CITY           SKY/WX    TMP DP  RH WIND       PRES   REMARKS
VICTORIA       PTCLDY    50  47  89 E6        30.27F WCI  48
6HR MIN TEMP:  50; 6HR MAX TEMP:  58;

*BEEVILLE      MOCLDY    53  52  97 NE8       30.23F
6HR MIN TEMP:  52; 6HR MAX TEMP:  60;

ROCKPORT       CLOUDY    59  53  80 E15       30.23F
6HR MIN TEMP:  57; 6HR MAX TEMP:  59;

*PORT ARANSAS  CLOUDY    57  54  89 NE12G22   30.23F
*PORT LAVACA   CLOUDY    53  50  90 E10       30.26F
6HR MIN TEMP:  52; 6HR MAX TEMP:  55;

*INGLESIDE     CLOUDY    58  53  82 E12       30.23F
CORPUS CHRISTI CLOUDY    58  54  86 NE14      30.21F
6HR MIN TEMP:  57; 6HR MAX TEMP:  58;

CORPUS NAS     MOCLDY    58  56  93 NE17      30.21F
6HR MIN TEMP:  57; 6HR MAX TEMP:  58;

*ROBSTOWN      NOT AVBL
ALICE          CLOUDY    58  53  84 E13       30.20F
6HR MIN TEMP:  57; 6HR MAX TEMP:  61;

KINGSVILLE NAS CLOUDY    59  56  89 NE14      30.21F
6HR MIN TEMP:  58; 6HR MAX TEMP:  61;

COTULLA        NOT AVBL
*FAITH RANCH   CLOUDY    57  50  77 E14G20    30.19F
LAREDO         LGT RAIN  59  55  86 E10       30.18F
6HR MIN TEMP:  59; 6HR MAX TEMP:  68; 6HR PCP: TRACE;

$$

TXZ248>255-310700-
DEEP SOUTH TEXAS

CITY           SKY/WX    TMP DP  RH WIND       PRES   REMARKS
BROWNSVILLE    MOCLDY    63  61  94 E5        30.18F
6HR MIN TEMP:  61; 6HR MAX TEMP:  68;

PORT ISABEL    PTCLDY    64  62  93 E5        30.18F
6HR MIN TEMP:  64; 6HR MAX TEMP:  67;

*SOUTH PADRE   PTCLDY    63  63 100 CALM      30.17F
HARLINGEN      CLEAR     61  60  97 E6        30.17F FOG
6HR MIN TEMP:  61; 6HR MAX TEMP:  68;

*HEBBRONVILLE  LGT RAIN  56  54  94 E15       30.20F
MCALLEN        CLOUDY    65  61  87 E10       30.17F
6HR MIN TEMP:  65; 6HR MAX TEMP:  69;

*WESLACO       MOCLDY    64  60  88 E8        30.18F
FALFURRIAS     CLOUDY    58  55  87 NE9       30.19F
6HR MIN TEMP:  58; 6HR MAX TEMP:  62;

EDINBURG       CLOUDY    64  60  87 NE5       30.19F
*ZAPATA        CLOUDY    62  57  84 E12       30.16F
$$

TXZ213>215-236>238-242>244-246-247-251-254-255-310700-
CMAN STATIONS




USA.gov is the U.S. government's official web portal to all federal, state and local government web resources and services.